KD1KE Weather Reports


time (UTC)temp
C
wind
direction
speed
KPH
gust
KPH
rain 1hr
cm
rain 24hr
cm
rain mn
cm
humidity
%
barometer
mb
20260507124504 10 0 0.0 0.0 0.00 1.78 0.30 84 1004.6
20260507124433 10 0 0.0 0.0 0.00 1.78 0.30 84 1004.6
20260507124158 10 0 0.0 0.0 0.00 1.80 0.30 84 1004.6
20260507123602 10 178 0.0 8.0 0.00 1.78 0.30 84 1004.8
20260507123333 10 182 0.0 9.7 0.00 1.78 0.30 84 1004.8
20260507123258 10 178 0.0 9.7 0.00 1.80 0.30 84 1004.8
20260507122702 9 178 0.0 9.7 0.00 1.78 0.30 86 1004.6
20260507122358 9 260 0.0 4.8 0.00 1.80 0.30 87 1004.6
20260507122234 9 221 0.0 4.8 0.00 1.78 0.30 87 1004.6
20260507121840 8 221 0.0 4.8 0.00 1.78 0.30 88 1004.7
20260507121801 8 221 0.0 4.8 0.00 1.78 0.30 88 1004.7
20260507121457 8 0 0.0 0.0 0.00 1.80 0.30 89 1004.7
20260507121134 8 0 0.0 0.0 0.00 1.78 0.30 90 1004.7
20260507120901 8 0 0.0 0.0 0.00 1.78 0.30 90 1004.7
20260507120033 8 0 0.0 0.0 0.00 1.78 0.30 91 1004.8
20260507120003 8 0 0.0 0.0 0.00 1.78 0.30 91 1004.8
20260507115658 7 0 0.0 0.0 0.00 1.80 0.30 91 1004.8
20260507115103 7 0 0.0 0.0 0.00 1.78 0.30 92 1004.8
20260507114933 7 0 0.0 0.0 0.00 1.78 0.30 92 1004.8
20260507114757 7 0 0.0 0.0 0.00 1.80 0.30 92 1004.9
20260507114202 7 0 0.0 0.0 0.00 1.78 0.30 93 1004.9
20260507113857 7 0 0.0 0.0 0.00 1.80 0.30 93 1004.9
20260507113832 7 0 0.0 0.0 0.00 1.78 0.30 93 1004.9
20260507113302 7 0 0.0 0.0 0.00 1.78 0.30 93 1004.7
20260507112957 7 0 0.0 0.0 0.00 1.80 0.30 93 1004.8
20260507112733 7 0 0.0 0.0 0.00 1.78 0.30 93 1004.8
20260507112401 7 0 0.0 0.0 0.00 1.78 0.30 93 1005.2
20260507112057 7 0 0.0 0.0 0.00 1.80 0.30 93 1005.4
20260507111633 7 0 0.0 0.0 0.00 1.78 0.30 93 1005.3
20260507111503 7 0 0.0 0.0 0.00 1.78 0.30 93 1005.1
20260507111157 7 0 0.0 0.0 0.00 1.80 0.30 93 1005.0
20260507110604 7 0 0.0 0.0 0.00 1.78 0.30 93 1004.7
20260507110532 7 0 0.0 0.0 0.00 1.78 0.30 93 1004.7
20260507110257 7 0 0.0 0.0 0.00 1.80 0.30 93 1004.7
20260507105701 6 0 0.0 0.0 0.00 1.78 0.30 93 1005.0
20260507105433 6 0 0.0 0.0 0.00 1.78 0.30 93 1004.6
20260507105357 6 0 0.0 0.0 0.00 1.80 0.30 93 1004.6
20260507104801 6 0 0.0 0.0 0.00 1.78 0.30 93 1004.9
20260507104457 6 0 0.0 0.0 0.00 1.80 0.30 93 1004.9
20260507104333 6 0 0.0 0.0 0.00 1.78 0.30 93 1004.9
20260507103901 6 0 0.0 0.0 0.00 1.78 0.30 93 1004.7
20260507103557 6 0 0.0 0.0 0.00 1.80 0.30 93 1005.0
20260507103232 6 0 0.0 0.0 0.00 1.78 0.30 93 1004.9
20260507103001 6 0 0.0 0.0 0.00 1.78 0.30 93 1004.9
20260507102657 6 0 0.0 0.0 0.00 1.80 0.30 93 1004.5
20260507102133 6 0 0.0 0.0 0.00 1.78 0.30 93 1004.5
20260507102101 6 0 0.0 0.0 0.00 1.78 0.30 93 1004.5
20260507101757 6 0 0.0 0.0 0.00 1.80 0.30 92 1004.4
20260507101202 6 0 0.0 0.0 0.00 1.78 0.30 92 1004.6
20260507101032 6 0 0.0 0.0 0.00 1.78 0.30 92 1004.6
20260507100857 6 0 0.0 0.0 0.00 1.80 0.30 92 1004.6
20260507100302 6 0 0.0 0.0 0.00 1.78 0.30 92 1004.1
20260507095957 6 0 0.0 0.0 0.00 1.80 0.30 92 1004.2
20260507095932 6 0 0.0 0.0 0.00 1.78 0.30 92 1004.3
20260507095401 6 0 0.0 0.0 0.00 1.78 0.30 92 1004.3
20260507095057 6 0 0.0 0.0 0.00 1.80 0.30 92 1004.2
20260507094831 6 0 0.0 0.0 0.00 1.78 0.30 92 1004.3
20260507094502 6 0 0.0 0.0 0.00 1.78 0.30 92 1004.1
20260507094157 6 0 0.0 0.0 0.00 1.80 0.30 92 1004.2
20260507093733 6 0 0.0 0.0 0.00 1.78 0.30 92 1004.4
20260507093600 6 0 0.0 0.0 0.00 1.78 0.30 92 1004.3
20260507093257 6 0 0.0 0.0 0.00 1.80 0.30 92 1004.3
20260507092704 6 0 0.0 0.0 0.00 1.78 0.30 92 1004.3
20260507092633 6 0 0.0 0.0 0.00 1.78 0.30 92 1004.3
20260507092357 6 0 0.0 0.0 0.00 1.80 0.30 92 1004.1
20260507091801 6 0 0.0 0.0 0.00 1.78 0.30 92 1004.3
20260507091532 6 0 0.0 0.0 0.00 1.78 0.30 92 1004.4
20260507090902 6 0 0.0 0.0 0.00 1.78 0.30 92 1004.3
20260507090557 6 0 0.0 0.0 0.00 1.80 0.30 92 1004.4
20260507090433 6 0 0.0 0.0 0.00 1.78 0.30 92 1004.5
20260507090001 6 0 0.0 0.0 0.00 1.78 0.30 92 1004.9
20260507085657 6 0 0.0 0.0 0.00 1.80 0.30 92 1004.7
20260507085332 6 0 0.0 0.0 0.00 1.78 0.30 92 1004.5
20260507085100 6 0 0.0 0.0 0.00 1.78 0.30 92 1004.4
20260507084757 6 0 0.0 0.0 0.00 1.80 0.30 92 1004.0
20260507084232 6 0 0.0 0.0 0.00 1.78 0.30 92 1004.0
20260507084200 6 0 0.0 0.0 0.00 1.78 0.30 92 1004.0
20260507083857 6 0 0.0 0.0 0.00 1.80 0.30 92 1004.1
20260507083300 7 0 0.0 0.0 0.00 1.78 0.30 92 1004.1
20260507083133 7 0 0.0 0.0 0.00 1.78 0.30 92 1003.9
20260507082956 7 0 0.0 0.0 0.00 1.80 0.30 92 1003.9
20260507082401 7 0 0.0 0.0 0.00 1.78 0.30 92 1004.0
20260507082056 7 0 0.0 0.0 0.00 1.80 0.30 92 1004.0
20260507082032 7 0 0.0 0.0 0.00 1.78 0.30 92 1004.0
20260507081500 7 0 0.0 0.0 0.00 1.78 0.30 92 1003.7
20260507080932 7 0 0.0 0.0 0.00 1.78 0.30 92 1004.1
20260507080601 7 0 0.0 0.0 0.00 1.78 0.30 92 1004.0
20260507080256 7 0 0.0 0.0 0.00 1.80 0.30 92 1004.0
20260507075832 7 0 0.0 0.0 0.00 1.78 0.30 92 1003.9
20260507075735 7 0 0.0 0.0 0.00 1.78 0.30 92 1004.1
20260507075700 7 0 0.0 0.0 0.00 1.78 0.30 92 1004.1
20260507075356 7 0 0.0 0.0 0.00 1.80 0.30 92 1004.2
20260507074804 7 0 0.0 0.0 0.00 1.78 0.30 92 1004.0
20260507074732 7 0 0.0 0.0 0.00 1.78 0.30 92 1004.0
20260507073901 7 0 0.0 0.0 0.00 1.78 0.30 92 1003.8
20260507073632 7 0 0.0 0.0 0.00 1.78 0.30 92 1003.8
20260507073556 7 0 0.0 0.0 0.00 1.80 0.30 92 1003.8
20260507073001 7 0 0.0 0.0 0.00 1.78 0.30 93 1003.9
20260507072531 7 0 0.0 0.0 0.00 1.78 0.30 93 1003.5
20260507072131 7 0 0.0 0.0 0.00 1.78 0.30 93 1003.8
20260507072100 7 0 0.0 0.0 0.00 1.78 0.30 93 1003.8
20260507071756 7 0 0.0 0.0 0.00 1.80 0.30 93 1003.8
20260507071432 7 0 0.0 0.0 0.00 1.78 0.30 93 1003.7
20260507071201 7 0 0.0 0.0 0.00 1.78 0.30 93 1003.6
20260507070856 7 0 0.0 0.0 0.00 1.80 0.30 93 1003.5
20260507070331 7 0 0.0 0.0 0.00 1.78 0.30 93 1003.5
20260507070301 7 0 0.0 0.0 0.00 1.78 0.30 93 1003.5
20260507065956 7 0 0.0 0.0 0.00 1.80 0.30 93 1003.5
20260507065400 7 0 0.0 0.0 0.00 1.78 0.30 93 1003.4
20260507065232 7 0 0.0 0.0 0.00 1.78 0.30 93 1003.5
20260507064500 7 68 0.0 4.8 0.00 1.78 0.30 93 1003.2
20260507064156 7 68 0.0 4.8 0.03 1.80 0.30 93 1003.1
20260507064132 7 68 0.0 4.8 0.00 1.78 0.30 93 1003.2
20260507063256 7 0 0.0 0.0 0.03 1.80 0.30 93 1003.3
20260507063031 8 0 0.0 0.0 0.00 1.78 0.30 93 1003.3
20260507062701 8 0 0.0 0.0 0.00 1.78 0.30 93 1003.2
20260507062356 8 0 0.0 0.0 0.03 1.80 0.30 93 1003.2
20260507061932 8 0 0.0 0.0 0.03 1.78 0.30 93 1003.0
20260507061759 8 0 0.0 0.0 0.03 1.78 0.30 93 1003.0
20260507061456 8 0 0.0 0.0 0.08 1.80 0.30 93 1003.2
20260507060906 8 0 0.0 0.0 0.13 1.78 0.30 93 1003.0
20260507060831 8 0 0.0 0.0 0.13 1.78 0.30 93 1003.0
20260507060556 8 0 0.0 0.0 0.18 1.80 0.30 93 1003.0
20260507060000 8 105 0.0 11.3 0.18 1.78 0.30 93 1003.1
20260507055732 8 105 0.0 11.3 0.18 1.78 0.30 93 1003.1
20260507055656 8 105 0.0 11.3 0.18 1.80 0.30 93 1003.0
20260507055101 8 0 0.0 0.0 0.18 1.78 0.30 93 1003.2
20260507054756 8 0 0.0 0.0 0.18 1.78 0.30 93 1003.3
20260507054631 8 0 0.0 0.0 0.18 1.75 0.28 93 1003.3
20260507054204 8 0 0.0 0.0 0.18 1.75 0.28 93 1003.3
20260507053855 8 0 0.0 0.0 0.18 1.78 0.28 93 1003.4
20260507053532 8 0 0.0 0.0 0.18 1.75 0.28 93 1003.3
20260507053300 8 86 0.0 4.8 0.18 1.75 0.28 93 1003.2
20260507052956 8 61 0.0 4.8 0.18 1.78 0.28 93 1003.3
20260507052432 8 67 0.0 11.3 0.18 1.75 0.28 93 1003.2
20260507052400 8 67 0.0 11.3 0.18 1.75 0.28 93 1003.2
20260507052058 8 59 1.6 11.3 0.20 1.78 0.28 93 1003.4
20260507051459 9 116 0.0 9.7 0.13 1.73 0.23 93 1003.7
20260507051332 9 116 0.0 9.7 0.18 1.73 0.23 93 1003.7
20260507051155 9 116 0.0 9.7 0.15 1.70 0.20 93 1003.9
20260507050600 9 0 0.0 0.0 0.08 1.60 0.13 93 1003.7
20260507050255 9 127 0.0 1.6 0.13 1.63 0.13 93 1003.5
20260507050230 9 127 0.0 1.6 0.13 1.60 0.13 93 1003.5
20260507045700 10 127 0.0 1.6 0.13 1.60 0.13 93 1003.1
20260507045355 10 127 0.0 1.6 0.13 1.63 0.13 93 1003.0
20260507045130 10 0 0.0 0.0 0.13 1.57 0.08 93 1003.0
20260507044838 10 0 0.0 0.0 0.13 1.57 0.08 93 1002.9
20260507044800 10 0 0.0 0.0 0.13 1.57 0.08 93 1002.9
20260507044455 10 0 0.0 0.0 0.13 1.60 0.10 93 1002.9
20260507044031 10 0 0.0 0.0 0.13 1.57 0.08 93 1002.9
20260507043900 10 0 0.0 0.0 0.13 1.57 0.08 93 1003.0
20260507043555 10 0 0.0 0.0 0.15 1.60 0.10 93 1002.9
20260507043004 10 171 0.0 9.7 0.13 1.57 0.08 93 1003.2
20260507042931 10 171 0.0 9.7 0.13 1.57 0.08 93 1003.2
20260507042059 11 185 0.0 14.5 0.13 1.57 0.08 93 1003.1
20260507041831 11 186 0.0 14.5 0.13 1.57 0.08 93 1003.0
20260507041757 11 195 0.0 14.5 0.13 1.57 0.08 93 1003.0
20260507041200 11 215 0.0 3.2 0.13 1.55 0.05 93 1002.7
20260507040855 11 215 0.0 3.2 0.13 1.55 0.05 93 1002.8
20260507040730 11 215 0.0 3.2 0.13 1.55 0.05 93 1002.8
20260507040258 11 215 0.0 3.2 0.05 1.47 0.00 93 1002.8
20260507035955 11 192 0.0 4.8 0.08 1.50 0.00 93 1002.8
20260507035631 11 194 0.0 4.8 0.05 1.47 1.47 93 1002.8
20260507035400 11 194 0.0 4.8 0.03 1.45 1.45 93 1002.7
20260507035055 11 195 0.0 4.8 0.05 1.47 1.47 93 1002.7
20260507034530 11 210 0.0 9.7 0.05 1.45 1.45 93 1002.6
20260507034500 11 210 0.0 9.7 0.05 1.45 1.45 93 1002.6
20260507034155 11 211 0.0 9.7 0.05 1.45 1.45 93 1002.6
20260507033600 11 242 0.0 11.3 0.03 1.42 1.42 93 1002.6
20260507033430 11 242 0.0 11.3 0.03 1.42 1.42 93 1002.5
20260507033255 11 242 0.0 11.3 0.05 1.45 1.45 93 1002.6
20260507032659 11 170 0.0 3.2 0.03 1.42 1.42 93 1002.6
20260507032331 11 172 0.0 3.2 0.05 1.42 1.42 93 1002.6
20260507031800 11 216 0.0 11.3 0.08 1.42 1.42 93 1002.6
20260507031455 11 217 0.0 11.3 0.08 1.42 1.45 93 1002.5
20260507031231 11 227 1.6 12.9 0.05 1.42 1.40 93 1002.4
20260507030859 11 230 1.6 12.9 0.05 1.42 1.40 93 1002.3
20260507030131 11 212 1.6 11.3 0.08 1.42 1.40 93 1002.3
20260507025959 11 213 1.6 11.3 0.08 1.42 1.40 93 1002.4
20260507025655 11 220 1.6 11.3 0.10 1.42 1.42 93 1002.3
20260507025103 11 216 0.0 9.7 0.08 1.42 1.40 93 1002.4
20260507025031 11 216 0.0 9.7 0.08 1.42 1.40 93 1002.4
20260507024755 11 206 0.0 14.5 0.10 1.42 1.42 93 1002.5
20260507024200 11 218 1.6 14.5 0.05 1.40 1.37 93 1002.6
20260507023930 11 223 0.0 12.9 0.05 1.40 1.37 93 1002.5
20260507023855 11 230 0.0 12.9 0.08 1.40 1.40 93 1002.5
20260507023301 11 217 0.0 9.7 0.08 1.40 1.37 93 1002.6
20260507022831 11 228 0.0 9.7 0.08 1.40 1.37 93 1002.7
20260507022359 11 254 1.6 12.9 0.05 1.37 1.35 93 1002.8
20260507022055 11 247 1.6 12.9 0.05 1.35 1.37 93 1002.8
20260507021731 11 244 1.6 12.9 0.03 1.32 1.32 93 1002.9
20260507021458 11 254 0.0 12.9 0.03 1.32 1.32 93 1002.9
20260507021155 11 235 0.0 4.8 0.05 1.35 1.35 93 1002.9
20260507020630 11 207 1.6 11.3 0.03 1.32 1.32 93 1002.9
20260507020558 11 208 1.6 16.1 0.03 1.32 1.32 93 1002.9
20260507020255 11 196 1.6 16.1 0.03 1.32 1.32 93 1003.0
20260507015700 12 227 1.6 20.9 0.00 1.30 1.30 93 1003.2
20260507015530 12 225 1.6 20.9 0.00 1.30 1.30 93 1003.1
20260507014800 12 253 1.6 11.3 0.00 1.30 1.30 93 1003.3
20260507014455 12 246 1.6 11.3 0.03 1.32 1.32 93 1003.3
20260507014431 12 239 1.6 11.3 0.00 1.30 1.30 93 1003.3
20260507013858 12 252 0.0 9.7 0.00 1.30 1.30 93 1003.4
20260507013554 12 257 0.0 6.4 0.00 1.30 1.30 93 1003.6
20260507013330 12 220 1.6 12.9 0.00 1.27 1.27 93 1003.6
20260507012959 12 239 1.6 14.5 0.00 1.27 1.27 93 1003.5
20260507012654 12 238 1.6 14.5 0.00 1.30 1.30 93 1003.5
20260507012229 12 233 1.6 19.3 0.00 1.27 1.27 93 1003.7
20260507012059 12 211 1.6 19.3 0.00 1.27 1.27 93 1003.7
20260507011754 12 215 1.6 19.3 0.00 1.30 1.30 93 1003.7
20260507011236 12 228 1.6 16.1 0.00 1.27 1.27 93 1003.8
20260507011202 12 228 1.6 16.1 0.00 1.27 1.27 93 1003.8
20260507011131 12 228 1.6 16.1 0.00 1.27 1.27 93 1003.8
20260507010854 12 233 1.6 16.1 0.03 1.30 1.30 93 1003.9
20260507010258 12 235 0.0 14.5 0.00 1.27 1.27 93 1004.0
20260507010031 12 234 0.0 14.5 0.00 1.27 1.27 93 1004.0
20260507005401 12 228 0.0 6.4 0.00 1.27 1.27 93 1004.2
20260507005054 12 229 0.0 6.4 0.03 1.30 1.30 93 1004.1
20260507004931 12 254 1.6 11.3 0.00 1.27 1.27 93 1004.1
20260507004501 12 264 1.6 11.3 0.00 1.27 1.27 93 1004.1
20260507003830 12 232 1.6 9.7 0.00 1.27 1.27 93 1004.2
20260507003558 12 225 3.2 12.9 0.00 1.27 1.27 93 1004.2
20260507003254 12 221 1.6 12.9 0.03 1.30 1.30 93 1004.2
20260507002729 12 223 3.2 19.3 0.00 1.27 1.27 93 1004.3
20260507002659 12 222 3.2 19.3 0.00 1.27 1.27 93 1004.3
20260507002354 12 224 3.2 19.3 0.03 1.30 1.30 93 1004.3
20260507001803 12 236 1.6 17.7 0.00 1.27 1.27 93 1004.3
20260507001629 12 238 1.6 17.7 0.00 1.27 1.27 93 1004.2
20260507001455 12 246 1.6 17.7 0.00 1.27 1.27 93 1004.3
20260507000900 12 249 1.6 11.3 0.00 1.27 1.27 93 1004.4
20260507000554 12 246 1.6 11.3 0.03 1.27 1.27 93 1004.3
20260507000531 12 246 1.6 11.3 0.00 1.27 1.27 93 1004.3
20260506235958 12 270 0.0 3.2 0.00 1.27 1.27 93 1004.3
20260506235654 12 270 0.0 3.2 0.03 1.27 1.27 93 1004.4
20260506235430 12 249 0.0 9.7 0.03 1.27 1.27 93 1004.4
20260506235058 12 246 1.6 12.9 0.03 1.27 1.27 93 1004.5
20260506234754 12 245 1.6 12.9 0.05 1.27 1.27 93 1004.5
20260506234330 12 244 3.2 12.9 0.05 1.27 1.27 93 1004.5
20260506234157 12 236 3.2 20.9 0.05 1.27 1.27 93 1004.6
20260506233854 12 229 3.2 20.9 0.08 1.27 1.27 93 1004.5
20260506233301 12 214 1.6 20.9 0.08 1.27 1.27 92 1004.5
20260506233229 12 214 1.6 20.9 0.08 1.27 1.27 92 1004.5
20260506232954 12 216 1.6 16.1 0.10 1.27 1.27 92 1004.5
20260506232358 12 233 1.6 16.1 0.13 1.27 1.27 92 1004.5
20260506232129 12 248 1.6 16.1 0.13 1.27 1.27 92 1004.6
20260506232054 12 249 1.6 16.1 0.13 1.27 1.27 92 1004.6
20260506231458 12 257 1.6 16.1 0.13 1.27 1.27 92 1004.5
20260506231154 12 262 1.6 8.0 0.15 1.27 1.27 92 1004.5
20260506231030 12 274 1.6 12.9 0.13 1.27 1.27 92 1004.5
20260506230641 12 255 1.6 14.5 0.13 1.24 1.22 92 1004.5
20260506230558 12 255 1.6 14.5 0.13 1.24 1.22 92 1004.5
20260506230254 12 245 1.6 17.7 0.15 1.24 1.24 92 1004.5
20260506225929 12 227 1.6 17.7 0.18 1.24 1.22 92 1004.6
20260506225658 12 215 1.6 17.7 0.23 1.24 1.22 92 1004.6
20260506225354 12 230 1.6 17.7 0.23 1.22 1.22 92 1004.6
20260506224828 12 230 1.6 16.1 0.25 1.19 1.19 92 1004.7
20260506224758 12 233 1.6 16.1 0.28 1.19 1.19 92 1004.7
20260506224454 12 239 1.6 16.1 0.30 1.19 1.19 92 1004.6
20260506223857 12 238 1.6 19.3 0.36 1.17 1.17 92 1004.7
20260506223730 12 234 1.6 22.5 0.38 1.17 1.17 92 1004.7
20260506223553 12 234 1.6 22.5 0.38 1.19 1.19 92 1004.7
20260506223041 12 203 1.6 22.5 0.38 1.17 1.17 92 1004.7
20260506222957 12 203 1.6 22.5 0.38 1.17 1.17 92 1004.7
20260506222653 12 197 1.6 22.5 0.38 1.14 1.14 92 1004.7
20260506222629 12 197 1.6 22.5 0.38 1.12 1.12 92 1004.8
20260506222059 12 203 0.0 11.3 0.38 1.12 1.12 92 1004.9
20260506221753 12 191 0.0 11.3 0.41 1.14 1.14 92 1004.8
20260506221528 12 193 0.0 11.3 0.38 1.12 1.12 92 1004.8
20260506221200 12 244 0.0 1.6 0.38 1.09 1.09 92 1004.9
20260506220853 12 248 0.0 1.6 0.41 1.12 1.12 92 1005.0
20260506220429 12 200 0.0 8.0 0.38 1.09 1.07 92 1004.9
20260506220257 12 217 0.0 12.9 0.38 1.09 1.07 92 1005.0
20260506215403 12 223 0.0 12.9 0.36 0.97 0.97 92 1005.1
20260506215330 12 223 0.0 12.9 0.36 0.97 0.97 92 1005.1
20260506215053 12 231 1.6 14.5 0.33 0.94 0.94 92 1005.1
20260506214228 12 221 1.6 17.7 0.28 0.86 0.84 92 1005.2
20260506214153 12 218 1.6 17.7 0.30 0.86 0.86 92 1005.2
20260506213559 12 0 0.0 0.0 0.28 0.79 0.79 92 1005.4
20260506213253 12 0 0.0 0.0 0.28 0.79 0.79 92 1005.4
20260506213130 12 0 0.0 0.0 0.28 0.79 0.76 92 1005.4
20260506212658 12 216 1.6 17.7 0.25 0.76 0.74 92 1005.3
20260506212353 12 215 1.6 17.7 0.30 0.76 0.76 92 1005.3
20260506212029 12 224 3.2 17.7 0.25 0.71 0.71 92 1005.2
20260506211759 12 226 1.6 11.3 0.28 0.71 0.71 91 1005.2
20260506211453 12 224 1.6 11.3 0.33 0.71 0.71 91 1005.2
20260506210929 12 235 1.6 14.5 0.36 0.71 0.69 91 1005.4
20260506210857 12 234 1.6 14.5 0.38 0.71 0.69 91 1005.4
20260506210553 12 226 1.6 14.5 0.38 0.69 0.69 91 1005.4
20260506205957 12 233 1.6 14.5 0.38 0.69 0.66 91 1005.5
20260506205829 12 239 3.2 16.1 0.38 0.69 0.66 91 1005.5
20260506205653 12 247 3.2 17.7 0.38 0.66 0.66 91 1005.5
20260506205057 12 251 3.2 17.7 0.36 0.58 0.58 91 1005.6
20260506204753 12 245 3.2 11.3 0.36 0.58 0.58 91 1005.7
20260506204729 12 243 3.2 11.3 0.36 0.58 0.56 91 1005.6
20260506204158 12 236 1.6 8.0 0.28 0.51 0.53 91 1005.9
20260506203853 12 237 3.2 9.7 0.33 0.53 0.53 91 1005.8
20260506203629 12 244 3.2 9.7 0.28 0.51 0.48 91 1005.8
20260506203257 12 241 3.2 9.7 0.30 0.51 0.48 91 1005.7
20260506202953 12 244 3.2 12.9 0.30 0.48 0.48 91 1005.7
20260506202528 12 238 3.2 12.9 0.36 0.46 0.46 91 1005.6
20260506202359 12 238 4.8 12.9 0.30 0.46 0.43 91 1005.6
20260506202053 12 236 4.8 12.9 0.36 0.46 0.46 91 1005.7
20260506201459 13 243 3.2 12.9 0.28 0.38 0.36 90 1005.9
20260506201428 13 243 3.2 12.9 0.28 0.38 0.36 90 1005.9
20260506200559 13 241 3.2 12.9 0.25 0.28 0.28 90 1006.1
20260506200329 13 240 3.2 12.9 0.25 0.25 0.25 90 1006.2
20260506200253 13 240 3.2 12.9 0.25 0.28 0.28 90 1006.2
20260506195659 13 235 1.6 8.0 0.25 0.25 0.25 90 1006.1
20260506195227 13 229 3.2 8.0 0.25 0.25 0.23 90 1005.9
20260506194757 13 232 1.6 9.7 0.23 0.23 0.20 90 1005.8
20260506194453 13 238 3.2 12.9 0.23 0.23 0.23 89 1005.8
20260506194128 13 236 1.6 12.9 0.23 0.23 0.20 89 1005.6
20260506193857 13 231 3.2 12.9 0.18 0.18 0.18 89 1005.7
20260506193553 13 233 3.2 12.9 0.18 0.18 0.20 89 1005.8
20260506193029 13 236 1.6 11.3 0.18 0.18 0.15 88 1005.6
20260506192956 13 240 1.6 11.3 0.13 0.13 0.13 88 1005.7
20260506192653 13 243 1.6 11.3 0.13 0.13 0.13 88 1005.9
20260506192057 13 216 3.2 12.9 0.08 0.08 0.08 87 1005.8
20260506191928 13 216 4.8 12.9 0.08 0.08 0.08 87 1005.8
20260506191753 13 217 4.8 12.9 0.08 0.08 0.10 87 1005.9
20260506191156 14 219 4.8 12.9 0.03 0.03 0.03 86 1006.0
20260506190852 14 216 4.8 14.5 0.03 0.03 0.05 86 1006.0
20260506190828 14 215 4.8 14.5 0.00 0.00 0.00 85 1005.8
20260506190256 15 211 6.4 14.5 0.00 0.00 0.00 84 1006.2
20260506185728 15 225 6.4 16.1 0.00 0.00 0.00 82 1006.2
20260506185357 15 234 4.8 16.1 0.00 0.00 0.00 81 1006.1
20260506185052 16 233 4.8 16.1 0.00 0.00 0.00 80 1006.2
20260506184628 16 237 3.2 12.9 0.00 0.00 0.00 80 1006.0
20260506184458 16 231 4.8 16.1 0.00 0.00 0.00 80 1005.9
20260506184152 16 227 4.8 17.7 0.00 0.00 0.00 80 1005.8
20260506183601 16 244 6.4 17.7 0.00 0.00 0.00 79 1005.8
20260506183529 16 244 6.4 17.7 0.00 0.00 0.00 79 1005.8
20260506183252 16 247 6.4 19.3 0.00 0.00 0.00 79 1005.8
20260506182659 16 231 8.0 19.3 0.00 0.00 0.00 80 1005.9
20260506182428 16 220 6.4 14.5 0.00 0.00 0.00 80 1006.0
20260506182352 16 221 6.4 14.5 0.00 0.00 0.00 80 1006.0
20260506181757 16 212 4.8 14.5 0.00 0.00 0.00 80 1005.9
20260506181328 16 160 4.8 12.9 0.00 0.00 0.00 81 1006.0
20260506180857 16 208 6.4 19.3 0.00 0.00 0.00 81 1006.1
20260506180228 16 238 8.0 19.3 0.00 0.00 0.00 81 1006.2
20260506175957 16 236 6.4 16.1 0.00 0.00 0.00 81 1006.3
20260506175128 16 233 6.4 25.7 0.00 0.00 0.00 81 1006.4
20260506175058 16 240 4.8 25.7 0.00 0.00 0.00 81 1006.5
20260506174157 16 251 3.2 14.5 0.00 0.00 0.00 81 1006.7
20260506174027 16 249 3.2 14.5 0.00 0.00 0.00 81 1006.7
20260506173852 16 250 4.8 14.5 0.00 0.00 0.00 81 1006.7
20260506173255 16 251 3.2 12.9 0.00 0.00 0.00 80 1006.8
20260506172952 16 253 3.2 11.3 0.00 0.00 0.00 81 1006.8
20260506172927 16 240 3.2 19.3 0.00 0.00 0.00 81 1006.8
20260506172357 16 239 3.2 19.3 0.00 0.00 0.00 81 1006.8
20260506172052 16 238 3.2 19.3 0.00 0.00 0.00 81 1006.9
20260506171827 16 239 3.2 17.7 0.00 0.00 0.00 81 1006.9
20260506171456 16 234 3.2 14.5 0.00 0.00 0.00 80 1007.0
20260506171152 16 214 3.2 14.5 0.00 0.00 0.00 80 1007.1
20260506170728 16 213 3.2 14.5 0.00 0.00 0.00 80 1007.1
20260506170557 16 209 3.2 19.3 0.00 0.00 0.00 80 1007.2
20260506170252 16 226 3.2 19.3 0.00 0.00 0.00 80 1007.2
20260506165658 16 229 4.8 19.3 0.00 0.00 0.00 80 1007.4
20260506165627 16 229 4.8 19.3 0.00 0.00 0.00 80 1007.4
20260506164757 16 219 1.6 14.5 0.00 0.00 0.00 80 1007.4
20260506164528 16 196 3.2 14.5 0.00 0.00 0.00 80 1007.5
20260506164452 16 186 3.2 14.5 0.00 0.00 0.00 80 1007.5
20260506163856 16 154 1.6 8.0 0.00 0.00 0.00 80 1007.5
20260506163552 16 161 1.6 8.0 0.00 0.00 0.00 81 1007.5
20260506163427 16 209 1.6 8.0 0.00 0.00 0.00 81 1007.6
20260506162955 16 209 3.2 9.7 0.00 0.00 0.00 81 1007.6
20260506162652 16 219 3.2 9.7 0.00 0.00 0.00 81 1007.7
20260506162328 16 234 3.2 11.3 0.00 0.00 0.00 81 1007.7
20260506162057 16 229 4.8 14.5 0.00 0.00 0.00 81 1007.8
20260506161751 16 212 4.8 14.5 0.00 0.00 0.00 80 1007.8
20260506161227 16 202 3.2 14.5 0.00 0.00 0.00 80 1007.9
20260506161157 16 195 3.2 11.3 0.00 0.00 0.00 80 1007.8
20260506160852 16 209 3.2 11.3 0.00 0.00 0.00 80 1007.8
20260506160257 16 236 1.6 14.5 0.00 0.00 0.00 80 1007.9
20260506160127 16 229 1.6 14.5 0.00 0.00 0.00 80 1007.9
20260506155952 16 216 3.2 14.5 0.00 0.00 0.00 80 1007.9
20260506155357 16 210 4.8 12.9 0.00 0.00 0.00 80 1008.0
20260506155052 16 219 4.8 12.9 0.00 0.00 0.00 80 1008.1
20260506155026 16 222 3.2 12.9 0.00 0.00 0.00 80 1008.1
20260506154456 16 241 3.2 12.9 0.00 0.00 0.00 80 1008.0
20260506154151 16 237 3.2 12.9 0.00 0.00 0.00 81 1008.0
20260506153926 16 240 3.2 12.9 0.00 0.00 0.00 80 1008.1
20260506153558 16 229 1.6 9.7 0.00 0.00 0.00 80 1008.1
20260506153251 16 209 3.2 11.3 0.00 0.00 0.00 80 1008.1
20260506152826 16 193 3.2 17.7 0.00 0.00 0.00 80 1008.0
20260506152656 16 195 3.2 17.7 0.00 0.00 0.00 80 1008.0
20260506152351 16 228 1.6 17.7 0.00 0.00 0.00 80 1007.9
20260506151758 16 235 1.6 12.9 0.00 0.00 0.00 81 1007.7
20260506151727 16 235 1.6 12.9 0.00 0.00 0.00 81 1007.7
20260506151451 16 238 1.6 12.9 0.00 0.00 0.00 81 1007.7
20260506150855 16 221 3.2 14.5 0.00 0.00 0.00 81 1007.4
20260506150627 16 226 3.2 14.5 0.00 0.00 0.00 80 1007.3
20260506150551 16 226 3.2 14.5 0.00 0.00 0.00 80 1007.3
20260506145956 16 245 3.2 12.9 0.00 0.00 0.00 80 1007.4
20260506145651 16 230 3.2 12.9 0.00 0.00 0.00 81 1007.5
20260506145528 16 237 3.2 11.3 0.00 0.00 0.00 81 1007.5
20260506145056 16 174 3.2 11.3 0.00 0.00 0.00 81 1007.6
20260506144751 15 131 1.6 11.3 0.00 0.00 0.00 81 1007.7
20260506144428 15 221 1.6 17.7 0.00 0.00 0.00 81 1007.9
20260506144157 15 223 1.6 17.7 0.00 0.00 0.00 81 1008.0
20260506143851 15 226 1.6 17.7 0.00 0.00 0.00 81 1008.1
20260506143330 15 99 1.6 12.9 0.00 0.00 0.00 81 1008.3
20260506143257 15 87 1.6 12.9 0.00 0.00 0.00 81 1008.3
20260506142951 15 81 1.6 12.9 0.00 0.00 0.00 81 1008.3
20260506142358 15 242 1.6 11.3 0.00 0.00 0.00 80 1008.4
20260506142229 15 221 1.6 11.3 0.00 0.00 0.00 80 1008.4
20260506142051 15 234 1.6 11.3 0.00 0.00 0.00 80 1008.4
20260506141458 16 120 1.6 8.0 0.00 0.00 0.00 80 1008.5
20260506141151 16 124 1.6 8.0 0.00 0.00 0.00 80 1008.6
20260506141129 16 123 1.6 8.0 0.00 0.00 0.00 80 1008.6
20260506140558 15 240 0.0 14.5 0.00 0.00 0.00 81 1008.6
20260506140251 15 233 1.6 14.5 0.00 0.00 0.00 81 1008.6
20260506140030 15 235 3.2 14.5 0.00 0.00 0.00 80 1008.5
20260506135700 15 223 1.6 11.3 0.00 0.00 0.00 80 1008.4
20260506135351 15 151 3.2 11.3 0.00 0.00 0.00 80 1008.5
20260506134931 16 85 3.2 8.0 0.00 0.00 0.00 80 1008.3
20260506134800 16 97 3.2 8.0 0.00 0.00 0.00 80 1008.3
20260506134451 16 224 3.2 8.0 0.00 0.00 0.00 80 1008.2
20260506133903 16 243 1.6 9.7 0.00 0.00 0.00 80 1008.1
20260506133832 16 243 1.6 9.7 0.00 0.00 0.00 80 1008.1
20260506133551 16 238 1.6 12.9 0.00 0.00 0.00 80 1008.1
20260506133001 16 219 1.6 12.9 0.00 0.00 0.00 80 1008.1
20260506132732 15 215 1.6 6.4 0.00 0.00 0.00 81 1008.1
20260506132651 15 215 1.6 6.4 0.00 0.00 0.00 81 1008.1
20260506132102 15 206 1.6 8.0 0.00 0.00 0.00 81 1008.1
20260506131751 15 193 1.6 8.0 0.00 0.00 0.00 81 1008.0
20260506131632 15 195 1.6 8.0 0.00 0.00 0.00 81 1008.1
20260506131201 15 189 0.0 3.2 0.00 0.00 0.00 81 1008.1
20260506130851 15 186 0.0 8.0 0.00 0.00 0.00 81 1008.2
20260506130533 15 126 1.6 8.0 0.00 0.00 0.00 81 1008.2
20260506130303 15 137 1.6 8.0 0.00 0.00 0.00 82 1008.3
20260506125950 15 163 1.6 8.0 0.00 0.00 0.00 82 1008.3
20260506125444 14 206 1.6 6.4 0.00 0.00 0.00 82 1008.4
20260506125434 14 204 1.6 6.4 0.00 0.00 0.00 83 1008.4
20260506125402 14 206 1.6 6.4 0.00 0.00 0.00 82 1008.4
20260506125051 14 221 0.0 4.8 0.00 0.00 0.00 83 1008.6